Location: Marsån
(66.4167°N, 22.2833°E)
Time: 10:23:54
(UTC+00:00)

Cosmos 2219 Rocket - Pass Details

Date: 24 February 2024
Orbit: 829 x 844 km, 71.0° (Epoch: 15 April)

Event Time Altitude Azimuth Distance (km) Brightness Sun altitude
Rises 21:10:40 0° 316° (NW) 3,392 6.4 -30.8°
Reaches altitude 10° 21:14:32 10° 290° (WNW) 2,450 5.1 -31.0°
Maximum altitude 21:16:54 13° 265° (W) 2,248 4.6 -31.1°
Enters shadow 21:18:07 12° 251° (WSW) 2,301 4.5 -31.1°
